This is the latest recevied weather packets stored in our database for station/object S51UL-6. If no packets are shown the sender has not sent any weather packets the latest 10 day(s).
| Time | Temp. | Humidity | Pressure | Rain* | Wind** | Luminosity | Snow |
|---|---|---|---|---|---|---|---|
| 1787558927 | 26.11° C | 64% | 1021.5 hPa | 0 mm | - | - | - |
| 1787558627 | 25° C | 67% | 1021.4 hPa | 0 mm | - | - | - |
| 1787558327 | 24.44° C | 69% | 1021.5 hPa | 0 mm | - | - | - |
| 1787558028 | 23.89° C | 73% | 1021.3 hPa | 0 mm | - | - | - |
| 1787557727 | 22.78° C | 77% | 1021.5 hPa | 0 mm | - | - | - |
| 1787557428 | 21.67° C | 81% | 1021.5 hPa | 0 mm | - | - | - |
| 1787556828 | 20° C | 81% | 1021.4 hPa | 0 mm | - | - | - |
| 1787556527 | 19.44° C | 83% | 1021.5 hPa | 0 mm | - | - | - |
| 1787556228 | 18.89° C | 83% | 1021.6 hPa | 0 mm | - | - | - |
| 1787555927 | 18.89° C | 84% | 1021.6 hPa | 0 mm | - | - | - |
| 1787555629 | 18.33° C | 85% | 1021.7 hPa | 0 mm | - | - | - |
| 1787555328 | 18.33° C | 86% | 1021.5 hPa | 0 mm | - | - | - |
| 1787555028 | 17.78° C | 87% | 1021.6 hPa | 0 mm | - | - | - |
| 1787554728 | 17.78° C | 88% | 1021.7 hPa | 0 mm | - | - | - |
| 1787554428 | 17.22° C | 88% | 1021.8 hPa | 0 mm | - | - | - |
| 1787553828 | 16.67° C | 89% | 1021.9 hPa | 0 mm | - | - | - |
| 1787553528 | 16.11° C | 89% | 1021.9 hPa | 0 mm | - | - | - |
| 1787553228 | 15.56° C | 89% | 1022.2 hPa | 0 mm | - | - | - |
| 1787552928 | 15.56° C | 90% | 1022.1 hPa | 0 mm | - | - | - |
| 1787552628 | 15° C | 90% | 1022.1 hPa | 0 mm | - | - | - |
| 1787552328 | 14.44° C | 89% | 1022.2 hPa | 0 mm | - | - | - |
| 1787552028 | 14.44° C | 89% | 1022.1 hPa | 0 mm | - | - | - |
| 1787551729 | 13.89° C | 89% | 1022.1 hPa | 0 mm | - | - | - |
| 1787551428 | 13.33° C | 89% | 1022 hPa | 0 mm | - | - | - |
| 1787551129 | 13.33° C | 89% | 1022 hPa | 0 mm | - | - | - |
* Rain latest hour (hover to see other rain measurements)
** Current wind speed in m/s (hover to see current wind gust speed)